Погода в Стренгнесе

Швеция     59°22′04″N   17°01′30″E
темп.,
°C
ветер,
м/с
пор.,
м/с
влажн.,
%
обл.,
%
осадки,
мм/ч
давл.,
гПа
погр.,
м
5 декабря, вс
вс501:00−5св488886 0.0 1014475
04:00−6св499087 0.0 1015447
07:00−6св4108992 0.0 1017493
10:00−6св498490 0.0 1020545
13:00−5св488199 0.0 1021608
16:00−6св498262 0.0 1022511
19:00−6св39765 0.0 1023381
22:00−7св38755 0.0 1024278
6 декабря, пн
пн601:00−8ссв37775 0.0 1024214
04:00−9ссв27805 0.0 1023164
07:00−9с25865 0.0 102397
10:00−8ссв26805 0.0 1023178
13:00−7ссв25705 0.0 1022314
16:00−10с13875 0.0 102157
19:00−10ссв13905 0.0 102050
22:00−10ссв13915 0.0 102056
7 декабря, вт
вт701:00−11ссв12935 0.0 101938
04:00−11ссв13935 0.0 101839
07:00−11ссв13935 0.0 101841
10:00−9ссв13885 0.0 101964
13:00−8ссв13815 0.0 101871
16:00−10ссв119330 0.0 101929
19:00−10св119474 0.0 101925
22:00−10всв119571 0.0 101915
8 декабря, ср
ср801:00−10св1196100 0.0 101913
04:00−9св1196100 0.0 101924
07:00−8всв1395100 0.0 101944
10:00−7всв1491100 0.0 102067
13:00−6всв2584100 0.0 101996
16:00−7всв2689100 0.0 102093
19:00−7всв139053 0.0 102144
22:00−7всв259276 0.0 102165
9 декабря, чт
чт901:00−6всв1298100 0.3 102155
04:00−6св1197100 0.1 102023
07:00−7в1194100 0.1 102137
10:00−4всв2697100 0.1 1021122
13:00−4в158822 0.1 1020107
16:00−6всв159013 0.0 102066
19:00−5всв288798 0.0 1020145
22:00−4всв2983100 0.0 1018189